GW3529 Weather Reports


Display with metric or nautical units.
time (UTC)temp
F
wind
direction
speed
MPH
gust
MPH
rain 1hr
in
rain 24hr
in
rain mn
in
humidity
%
barometer
mb
20260510181526 64 98 1.0 10.0 0.00 0.00 0.00 41 1019.2
20260510180028 64 54 0.0 13.0 0.00 0.00 0.00 43 1019.3
20260510174523 64 9 0.0 5.0 0.00 0.00 0.00 43 1019.5
20260510173019 62 14 0.0 9.0 0.00 0.00 0.00 46 1019.6
20260510171519 61 349 3.0 13.0 0.00 0.00 0.00 47 1019.7
20260510170015 61 171 0.0 8.0 0.00 0.00 0.00 50 1019.7
20260510164514 60 42 0.0 12.0 0.00 0.00 0.00 51 1019.8
20260510163014 60 351 0.0 3.0 0.00 0.00 0.00 53 1019.9
20260510161513 58 355 0.0 11.0 0.00 0.00 0.00 56 1020.1
20260510160012 57 61 0.0 16.0 0.00 0.00 0.00 58 1020.1
20260510154513 58 360 10.0 14.0 0.00 0.00 0.00 55 1020.0
20260510153012 58 22 1.0 10.0 0.00 0.00 0.00 56 1019.9
20260510151511 58 73 5.0 15.0 0.00 0.00 0.00 54 1020.0
20260510150011 60 19 4.0 13.0 0.00 0.00 0.00 49 1019.9
20260510144512 60 5 7.0 17.0 0.00 0.00 0.00 47 1020.0
20260510143009 60 15 0.0 5.0 0.00 0.00 0.00 52 1019.9
20260510141505 59 338 0.0 0.0 0.00 0.00 0.00 53 1019.9
20260510140001 58 178 0.0 0.0 0.00 0.00 0.00 54 1019.9
20260510134605 56 175 0.0 1.0 0.00 0.00 0.00 56 1020.1
20260510133054 53 171 0.0 0.0 0.00 0.00 0.00 62 1020.2
20260510131552 51 171 0.0 0.0 0.00 0.00 0.00 64 1020.0
20260510130142 49 171 0.0 0.0 0.00 0.00 0.00 65 1019.8
20260510124521 49 171 0.0 0.0 0.00 0.00 0.00 64 1019.7
20260510123022 50 171 0.0 4.0 0.00 0.00 0.00 63 1019.5
20260510121519 50 171 0.0 0.0 0.00 0.00 0.00 63 1019.4
20260510120016 49 171 0.0 0.0 0.00 0.00 0.00 65 1019.3
20260510114517 46 175 0.0 0.0 0.00 0.00 0.00 70 1019.1
20260510113016 46 176 0.0 0.0 0.00 0.00 0.00 70 1019.2
20260510111513 46 176 0.0 0.0 0.00 0.00 0.00 70 1019.0
20260510110029 46 176 0.0 0.0 0.00 0.00 0.00 70 1018.9
20260510104511 48 176 0.0 0.0 0.00 0.00 0.00 66 1018.8
20260510103012 50 176 0.0 0.0 0.00 0.00 0.00 63 1018.7
20260510101508 50 176 0.0 0.0 0.00 0.00 0.00 64 1018.6
20260510100008 49 176 0.0 0.0 0.00 0.00 0.00 66 1018.6
20260510094506 49 173 0.0 0.0 0.00 0.00 0.00 66 1018.5
20260510093005 49 171 0.0 0.0 0.00 0.00 0.00 67 1018.3
20260510091503 49 171 0.0 4.0 0.00 0.00 0.00 67 1018.3
20260510090004 49 171 0.0 0.0 0.00 0.00 0.00 67 1018.0
20260510084502 47 163 0.0 0.0 0.00 0.00 0.00 70 1018.0
20260510083001 46 159 0.0 0.0 0.00 0.00 0.00 71 1018.1
20260510081610 45 159 0.0 0.0 0.00 0.00 0.00 71 1018.1
20260510080103 45 159 0.0 0.0 0.00 0.00 0.00 70 1018.2
20260510074604 44 153 0.0 0.0 0.00 0.00 0.00 69 1018.1
20260510073054 45 360 0.0 0.0 0.00 0.00 0.00 65 1018.2
20260510071551 46 360 0.0 0.0 0.00 0.00 0.00 64 1018.2
20260510070048 47 360 0.0 0.0 0.00 0.00 0.00 61 1018.2
20260510064559 48 360 0.0 0.0 0.00 0.00 0.00 60 1018.2
20260510063042 50 360 0.0 0.0 0.00 0.00 0.00 58 1018.2
20260510061540 50 360 0.0 0.0 0.00 0.00 0.00 58 1018.2
20260510060041 50 360 0.0 0.0 0.00 0.00 0.00 56 1018.1
20260510054536 53 169 0.0 0.0 0.00 0.00 0.00 52 1017.7
20260510053035 53 162 0.0 0.0 0.00 0.00 0.00 52 1017.5
20260510051535 52 161 0.0 0.0 0.00 0.00 0.00 51 1017.6
20260510050036 52 162 0.0 0.0 0.00 0.00 0.00 52 1017.6
20260510044547 52 162 0.0 0.0 0.00 0.00 0.00 52 1017.5
20260510043033 51 162 0.0 0.0 0.00 0.00 0.00 54 1017.5
20260510041531 51 162 0.0 0.0 0.00 0.00 0.00 55 1017.5
20260510040031 51 162 0.0 0.0 0.00 0.00 0.00 56 1017.6
20260510034528 50 162 0.0 0.0 0.00 0.00 0.00 58 1017.3
20260510033026 50 161 0.0 0.0 0.00 0.00 0.00 56 1017.0
20260510031526 50 159 0.0 0.0 0.00 0.00 0.00 55 1016.9
20260510030033 53 115 0.0 0.0 0.00 0.00 0.00 51 1016.6
20260510024521 54 67 0.0 0.0 0.00 0.00 0.00 48 1016.4
20260510023019 54 30 0.0 0.0 0.00 0.00 0.00 49 1016.2
20260510021519 54 30 0.0 0.0 0.00 0.00 0.00 50 1016.0
20260510020016 56 28 0.0 0.0 0.00 0.00 0.00 46 1015.8
20260510014514 57 28 0.0 0.0 0.00 0.00 0.00 45 1015.6
20260510013014 58 28 0.0 0.0 0.00 0.00 0.00 43 1015.5
20260510011511 58 11 0.0 0.0 0.00 0.00 0.00 42 1015.3
20260510010012 58 13 0.0 0.0 0.00 0.00 0.00 42 1015.2
20260510004509 58 5 0.0 1.0 0.00 0.00 0.00 41 1015.1
20260510003019 59 19 0.0 1.0 0.00 0.00 0.00 41 1014.9
20260510001506 59 22 0.0 10.0 0.00 0.00 0.00 39 1014.8
20260510000004 59 19 0.0 8.0 0.00 0.00 0.00 39 1014.6
20260509234507 59 13 0.0 6.0 0.00 0.00 0.00 39 1014.6
20260509233002 60 317 2.0 13.0 0.00 0.00 0.00 38 1014.4
20260509231500 60 342 0.0 11.0 0.00 0.00 0.00 38 1014.3
20260509230001 59 320 0.0 1.0 0.00 0.00 0.00 39 1014.2
20260509224602 59 27 0.0 12.0 0.00 0.00 0.00 38 1014.2
20260509223100 60 343 1.0 11.0 0.00 0.00 0.00 37 1014.3
20260509221557 62 327 9.0 15.0 0.00 0.00 0.00 38 1014.2
20260509220106 59 355 0.0 5.0 0.00 0.00 0.00 41 1014.4
20260509214555 59 42 0.0 0.0 0.00 0.00 0.00 41 1014.4
20260509213053 59 26 2.0 8.0 0.00 0.00 0.00 41 1014.2
20260509211652 59 348 3.0 14.0 0.00 0.00 0.00 42 1014.0
20260509210051 60 19 3.0 10.0 0.00 0.00 0.00 43 1014.0
20260509204550 59 13 0.0 15.0 0.00 0.00 0.00 41 1014.0
20260509203111 60 350 11.0 20.0 0.00 0.00 0.00 42 1014.0
20260509201553 58 315 0.0 14.0 0.00 0.00 0.00 43 1013.8
20260509200055 60 5 2.0 18.0 0.00 0.00 0.00 42 1013.9
20260509194547 58 23 1.0 15.0 0.00 0.00 0.00 45 1013.8
20260509193052 58 348 6.0 15.0 0.00 0.00 0.00 45 1013.7
20260509191556 58 342 7.0 18.0 0.00 0.00 0.00 48 1013.7
20260509190044 55 333 4.0 16.0 0.00 0.00 0.00 47 1013.7
20260509184544 56 335 4.0 14.0 0.00 0.00 0.00 48 1013.7
20260509183047 54 5 7.0 15.0 0.00 0.00 0.00 48 1013.8